Temp
5 5 5 4 3 3 3 2 1 0 0 -0 -0 -1 -2 -2 -2 -3 -3 -4 -4 -5 -5 -5 -5 -6 -6 -7 -8 -8 -8 -8 -8 -8 -8 -8 -8 -8 -7 -7 -6 -6 -5
5 5 4 3 3 3 2 1 -0 -1 -1 -1 -1 -2 -3 -3 -3 -4 -4 -5 -5 -5 -5 -5 -6 -7 -8 -8 -8 -9 -9 -9 -9 -9 -9 -8 -8 -8 -8 -7 -7 -6 -6
5 4 4 3 2 1 0 -1 -1 -1 -1 -2 -2 -4 -4 -4 -4 -5 -5 -5 -5 -5 -6 -6 -7 -8 -9 -9 -9 -9 -9 -10 -10 -10 -10 -9 -9 -9 -9 -8 -7 -7 -7
4 3 3 2 1 -0 -1 -1 -1 -1 -2 -2 -4 -5 -5 -5 -5 -5 -5 -5 -6 -6 -6 -6 -7 -9 -10 -10 -10 -10 -10 -10 -11 -10 -10 -10 -9 -9 -9 -9 -8 -7 -7
3 2 1 1 -0 -1 -1 -1 -2 -2 -3 -3 -4 -5 -5 -5 -5 -5 -6 -6 -6 -6 -6 -7 -8 -8 -9 -11 -11 -11 -11 -11 -11 -10 -10 -10 -10 -9 -9 -9 -9 -9 -8
2 1 1 -0 -1 -1 -1 -2 -3 -3 -4 -4 -5 -5 -5 -5 -6 -6 -6 -6 -7 -7 -7 -7 -9 -9 -11 -11 -10 -11 -11 -12 -11 -11 -10 -10 -9 -9 -9 -9 -9 -9 -9
1 1 -0 -1 -1 -2 -2 -3 -3 -4 -5 -5 -5 -5 -5 -6 -6 -6 -7 -7 -7 -7 -8 -9 -11 -12 -12 -12 -12 -11 -11 -11 -11 -11 -11 -10 -10 -10 -10 -10 -9 -9 -9
0 -0 -1 -1 -2 -2 -3 -3 -4 -4 -5 -5 -5 -6 -6 -6 -6 -7 -7 -7 -7 -8 -9 -10 -12 -12 -13 -13 -12 -12 -11 -11 -11 -11 -11 -11 -11 -10 -10 -10 -10 -10 -9
-1 -1 -2 -2 -3 -3 -4 -4 -4 -5 -5 -5 -5 -6 -6 -7 -7 -7 -8 -8 -8 -8 -9 -12 -13 -13 -13 -13 -12 -12 -12 -12 -11 -12 -11 -11 -10 -10 -11 -11 -11 -10 -9
-1 -1 -2 -2 -3 -4 -5 -5 -5 -5 -5 -6 -6 -7 -7 -7 -8 -8 -8 -8 -9 -10 -12 -12 -13 -13 -13 -13 -13 -13 -13 -12 -12 -12 -12 -11 -10 -10 -10 -10 -11 -10 -9
-1 -2 -2 -2 -4 -5 -5 -5 -5 -6 -6 -6 -7 -7 -8 -8 -8 -8 -9 -9 -11 -12 -12 -12 -12 -11 -14 -14 -13 -13 -13 -12 -12 -12 -12 -11 -11 -11 -10 -10 -10 -10 -10
-2 -2 -2 -3 -4 -5 -6 -6 -6 -7 -7 -7 -8 -8 -8 -8 -9 -9 -9 -10 -10 -11 -12 -11 -11 -12 -12 -12 -12 -13 -12 -12 -12 -12 -12 -12 -12 -11 -10 -10 -9 -9 -9
-2 -2 -3 -4 -6 -6 -6 -6 -6 -7 -8 -8 -8 -9 -9 -9 -9 -9 -10 -10 -10 -11 -11 -11 -11 -11 -11 -12 -12 -12 -13 -12 -13 -13 -12 -12 -11 -10 -10 -9 -9 -9 -9
-2 -3 -4 -5 -6 -6 -7 -7 -7 -8 -8 -9 -9 -9 -10 -9 -9 -10 -10 -10 -10 -11 -11 -11 -11 -11 -12 -12 -12 -12 -12 -13 -13 -13 -12 -11 -11 -10 -10 -9 -9 -8 -8
-3 -4 -5 -6 -6 -7 -7 -7 -8 -8 -9 -9 -10 -10 -10 -10 -10 -10 -10 -11 -11 -11 -11 -11 -11 -11 -11 -11 -12 -12 -12 -12 -12 -12 -12 -12 -11 -11 -10 -10 -9 -9 -9
-4 -5 -6 -6 -6 -7 -7 -7 -8 -8 -9 -10 -10 -10 -10 -10 -10 -10 -10 -11 -11 -11 -11 -11 -11 -11 -11 -12 -12 -12 -12 -12 -13 -13 -13 -12 -12 -12 -11 -11 -10 -10 -10
-5 -6 -6 -6 -7 -7 -7 -8 -8 -9 -9 -9 -10 -10 -10 -10 -10 -10 -11 -11 -11 -11 -11 -11 -11 -11 -12 -12 -12 -12 -12 -13 -13 -13 -13 -13 -13 -12 -12 -13 -12 -11 -11
-5 -6 -6 -7 -7 -7 -7 -8 -8 -9 -9 -9 -9 -10 -10 -10 -10 -10 -11 -11 -11 -11 -11 -11 -11 -11 -12 -12 -12 -12 -12 -13 -13 -13 -13 -13 -13 -13 -13 -13 -13 -12 -12
-6 -7 -7 -7 -7 -7 -7 -8 -8 -9 -9 -9 -9 -10 -10 -10 -11 -10 -11 -11 -11 -11 -11 -11 -11 -11 -12 -12 -12 -12 -13 -13 -13 -13 -13 -13 -13 -13 -13 -13 -13 -13 -13
-6 -7 -7 -7 -7 -7 -7 -8 -8 -8 -9 -10 -10 -10 -10 -10 -10 -10 -10 -11 -11 -11 -11 -11 -11 -11 -11 -12 -12 -12 -12 -13 -13 -13 -13 -13 -13 -13 -13 -14 -14 -14 -14
-7 -7 -7 -7 -8 -7 -7 -7 -8 -8 -8 -10 -10 -10 -10 -10 -10 -10 -10 -10 -10 -11 -11 -11 -11 -11 -11 -12 -12 -12 -13 -13 -13 -13 -13 -13 -13 -13 -13 -14 -14 -14 -14
-7 -7 -7 -7 -8 -8 -7 -8 -8 -8 -8 -9 -9 -9 -10 -10 -10 -10 -10 -10 -10 -10 -11 -11 -11 -11 -11 -12 -12 -12 -13 -13 -13 -14 -14 -13 -13 -13 -13 -14 -14 -14 -13
-6 -7 -7 -7 -8 -8 -7 -8 -8 -8 -8 -8 -9 -9 -9 -10 -10 -10 -10 -10 -10 -10 -10 -11 -11 -11 -11 -11 -12 -12 -13 -13 -13 -13 -14 -14 -14 -14 -14 -14 -13 -13 -13
-6 -7 -7 -7 -7 -8 -8 -8 -7 -8 -8 -8 -8 -8 -8 -9 -9 -9 -10 -10 -10 -10 -10 -11 -10 -11 -11 -11 -12 -12 -13 -13 -13 -13 -14 -14 -14 -14 -14 -14 -14 -14 -14
-8 -8 -8 -8 -8 -8 -8 -8 -8 -8 -8 -8 -7 -7 -8 -8 -8 -9 -10 -10 -10 -10 -10 -10 -11 -11 -11 -11 -12 -12 -13 -13 -13 -14 -14 -14 -14 -14 -14 -14 -14 -14 -14
-9 -9 -9 -9 -9 -9 -9 -9 -8 -8 -8 -8 -8 -8 -8 -8 -8 -8 -9 -10 -10 -10 -10 -10 -10 -11 -11 -11 -12 -12 -13 -13 -14 -14 -14 -14 -14 -14 -14 -14 -14 -14 -14
Height
1554 1554 1554 1553 1552 1550 1547 1544 1540 1536 1532 1527 1523 1518 1515 1513 1511 1509 1508 1506 1505 1504 1502 1500 1498 1495 1491 1488 1485 1481 1477 1473 1466 1458 1458 1456 1452 1449 1447 1445 1444 1443 1442
1553 1552 1551 1549 1547 1545 1542 1539 1536 1531 1526 1519 1515 1511 1509 1508 1506 1504 1502 1501 1501 1499 1497 1495 1492 1488 1484 1481 1478 1474 1470 1467 1462 1454 1451 1449 1447 1443 1440 1438 1437 1437 1436
1550 1549 1547 1546 1543 1540 1538 1534 1530 1524 1519 1514 1510 1507 1504 1503 1501 1500 1499 1498 1497 1495 1492 1489 1485 1481 1477 1474 1470 1466 1463 1459 1456 1451 1443 1443 1440 1437 1434 1432 1431 1430 1430
1547 1546 1544 1541 1539 1536 1533 1529 1524 1518 1513 1509 1505 1503 1501 1499 1498 1498 1496 1495 1493 1490 1487 1482 1477 1473 1470 1466 1462 1459 1455 1452 1449 1445 1440 1436 1434 1431 1429 1427 1425 1424 1424
1543 1541 1538 1536 1534 1531 1527 1523 1518 1513 1509 1506 1503 1501 1499 1498 1497 1495 1494 1492 1488 1484 1480 1475 1470 1466 1461 1457 1455 1452 1449 1446 1442 1439 1435 1431 1429 1426 1425 1423 1420 1419 1418
1538 1536 1533 1532 1529 1526 1522 1517 1513 1509 1506 1503 1501 1499 1498 1496 1494 1492 1490 1487 1482 1478 1473 1468 1463 1459 1455 1451 1448 1445 1443 1440 1437 1434 1430 1427 1424 1422 1420 1418 1416 1415 1414
1533 1530 1529 1527 1524 1520 1515 1511 1507 1505 1503 1501 1499 1496 1495 1493 1491 1489 1485 1482 1477 1473 1468 1462 1457 1455 1451 1447 1444 1441 1438 1434 1431 1428 1424 1421 1418 1417 1416 1413 1412 1410 1409
1527 1526 1524 1521 1518 1513 1510 1507 1503 1500 1498 1496 1495 1494 1492 1490 1487 1484 1481 1477 1473 1469 1463 1458 1454 1450 1447 1443 1440 1437 1433 1429 1425 1422 1418 1415 1413 1411 1410 1408 1407 1405 1404
1523 1521 1518 1515 1512 1508 1506 1503 1499 1496 1494 1492 1491 1490 1488 1486 1483 1480 1476 1473 1468 1464 1459 1455 1451 1447 1443 1440 1436 1431 1427 1424 1420 1417 1413 1409 1406 1404 1403 1402 1401 1401 1399
1517 1515 1512 1509 1506 1503 1500 1498 1495 1492 1491 1489 1487 1486 1484 1482 1479 1476 1472 1468 1464 1460 1456 1452 1447 1443 1439 1436 1432 1427 1423 1420 1416 1411 1408 1405 1402 1399 1397 1396 1395 1396 1396
1512 1510 1507 1503 1501 1499 1496 1493 1490 1488 1486 1485 1484 1482 1480 1478 1475 1472 1469 1465 1461 1458 1453 1448 1444 1439 1436 1432 1428 1425 1421 1416 1412 1408 1404 1402 1399 1397 1394 1392 1391 1390 1390
1506 1504 1501 1498 1495 1493 1491 1489 1485 1483 1482 1481 1479 1478 1475 1473 1471 1468 1466 1462 1459 1455 1450 1446 1441 1436 1432 1428 1425 1421 1417 1414 1410 1406 1402 1399 1396 1393 1390 1388 1387 1386 1385
1500 1497 1495 1492 1491 1488 1485 1484 1481 1479 1477 1476 1475 1473 1471 1469 1467 1465 1462 1459 1456 1452 1448 1443 1438 1434 1430 1426 1422 1418 1415 1411 1408 1404 1401 1397 1394 1391 1388 1385 1382 1381 1381
1495 1492 1489 1487 1485 1482 1479 1478 1477 1475 1473 1472 1470 1468 1467 1465 1463 1461 1459 1456 1453 1449 1445 1441 1437 1432 1428 1425 1421 1417 1413 1409 1406 1403 1400 1397 1394 1391 1388 1384 1381 1380 1379
1489 1487 1485 1483 1480 1477 1474 1473 1472 1470 1468 1467 1466 1464 1462 1460 1459 1457 1455 1452 1449 1446 1442 1439 1435 1432 1428 1424 1421 1417 1413 1409 1406 1403 1400 1397 1394 1391 1388 1386 1383 1381 1379
1484 1481 1479 1477 1475 1473 1470 1468 1466 1465 1463 1462 1460 1459 1458 1456 1455 1454 1452 1450 1447 1444 1440 1437 1433 1430 1427 1423 1420 1416 1413 1409 1406 1403 1400 1397 1394 1392 1389 1387 1385 1383 1381
1479 1477 1475 1472 1470 1468 1465 1463 1461 1460 1458 1456 1455 1454 1453 1452 1451 1450 1448 1446 1444 1441 1438 1435 1431 1428 1425 1422 1419 1416 1412 1409 1406 1402 1400 1397 1395 1392 1390 1388 1386 1384 1383
1474 1471 1470 1467 1464 1462 1460 1458 1456 1455 1453 1452 1451 1449 1448 1447 1447 1446 1445 1443 1441 1438 1435 1432 1429 1426 1424 1421 1418 1415 1412 1409 1406 1403 1400 1397 1394 1392 1390 1388 1386 1384 1383
1470 1466 1463 1462 1459 1456 1454 1452 1450 1449 1447 1446 1445 1444 1443 1442 1441 1441 1440 1438 1436 1434 1432 1429 1426 1424 1421 1419 1417 1414 1411 1408 1405 1402 1400 1397 1394 1392 1390 1388 1387 1385 1383
1463 1461 1459 1455 1452 1450 1448 1446 1444 1443 1441 1440 1439 1437 1438 1437 1435 1435 1434 1433 1431 1430 1428 1425 1423 1421 1419 1417 1414 1412 1409 1407 1404 1402 1399 1397 1394 1392 1389 1388 1386 1384 1382
1457 1454 1452 1449 1446 1443 1441 1440 1438 1437 1435 1433 1432 1431 1431 1430 1430 1429 1428 1427 1426 1425 1423 1421 1419 1417 1416 1414 1412 1410 1407 1405 1403 1400 1398 1396 1394 1391 1389 1387 1385 1384 1382
1451 1448 1445 1442 1439 1437 1435 1434 1432 1430 1429 1427 1426 1425 1424 1423 1422 1422 1422 1421 1420 1419 1418 1417 1415 1413 1412 1410 1409 1407 1405 1403 1401 1399 1397 1395 1393 1391 1389 1387 1385 1383 1382
1444 1441 1438 1436 1433 1431 1428 1427 1425 1424 1422 1421 1420 1418 1417 1416 1415 1414 1414 1414 1414 1412 1412 1411 1410 1409 1408 1407 1405 1404 1402 1401 1399 1397 1395 1393 1391 1390 1388 1386 1384 1383 1381
1436 1433 1431 1428 1426 1424 1421 1419 1418 1416 1414 1413 1412 1410 1409 1408 1407 1406 1406 1406 1406 1405 1404 1404 1404 1404 1403 1402 1401 1400 1399 1397 1396 1395 1393 1392 1390 1388 1387 1385 1384 1382 1380
1428 1425 1423 1421 1419 1416 1414 1412 1410 1408 1406 1404 1403 1401 1400 1399 1398 1397 1397 1397 1397 1397 1397 1397 1397 1398 1398 1397 1396 1396 1395 1394 1393 1392 1391 1390 1388 1387 1386 1384 1383 1382 1380
1421 1419 1416 1414 1412 1409 1407 1405 1403 1400 1398 1396 1394 1392 1390 1389 1388 1388 1388 1389 1389 1390 1391 1390 1390 1391 1392 1392 1392 1391 1390 1390 1389 1388 1388 1387 1386 1385 1384 1383 1382 1380 1379
Wind_Speed
7 9 11 12 13 17 22 21 23 26 29 32 31 27 21 20 26 16 23 14 16 17 18 22 21 24 25 23 23 23 22 23 29 34 29 27 28 27 26 24 22 23 22
8 9 10 14 19 23 21 21 24 29 32 31 27 24 18 19 22 23 19 17 17 17 20 23 27 26 27 23 23 23 23 23 27 33 32 28 25 25 24 23 21 22 22
9 11 15 20 21 18 18 22 29 33 30 27 23 17 15 17 17 13 15 13 15 17 22 28 30 26 25 24 24 25 24 22 22 26 31 27 26 23 20 20 22 23 23
10 16 19 17 15 16 22 28 31 29 25 22 16 13 14 11 6 8 11 13 18 24 28 30 30 26 23 24 24 22 22 22 22 24 27 26 22 20 19 19 19 18 19
15 18 16 15 15 21 27 29 27 23 20 18 13 9 7 6 7 10 15 19 25 27 27 28 29 29 26 22 19 20 21 23 22 22 23 23 21 19 18 17 18 16 16
16 16 16 15 18 25 27 25 23 20 16 13 11 9 6 8 11 16 20 25 25 25 27 28 26 22 18 20 17 15 16 19 21 22 23 23 23 22 19 17 17 17 17
15 14 12 17 23 25 24 23 23 19 16 15 14 9 10 12 16 20 25 23 23 24 25 25 21 17 17 16 16 21 22 21 23 25 24 24 23 19 18 18 17 17 20
12 11 17 21 23 23 23 22 21 18 16 15 16 11 13 16 19 24 23 22 22 23 23 21 18 17 16 17 22 21 18 18 18 19 20 23 21 21 20 20 20 21 17
12 15 19 21 23 23 22 20 18 15 15 14 12 13 16 17 23 23 21 21 22 22 21 17 16 17 17 18 20 20 20 18 17 20 20 20 19 20 20 19 18 17 15
14 17 20 22 23 22 21 20 16 14 15 15 15 16 16 21 21 20 20 21 21 20 19 17 18 18 16 18 18 18 18 19 21 19 16 15 13 13 13 15 16 18 19
17 19 22 23 21 22 22 21 17 15 14 14 14 16 20 20 19 18 18 19 17 18 19 20 19 19 17 17 15 13 17 21 20 16 14 13 12 12 12 12 11 14 16
19 22 22 21 18 20 24 21 19 16 15 15 16 18 19 17 17 17 18 18 18 18 19 21 20 18 18 18 17 16 17 18 16 14 13 13 13 13 12 12 12 13 14
21 22 22 20 19 20 22 20 18 15 15 16 18 18 16 15 16 16 17 17 17 18 19 20 20 18 17 17 16 16 15 16 14 13 14 13 13 12 10 11 9 10 10
22 21 20 21 21 21 21 19 17 15 16 17 17 16 14 15 15 16 17 17 17 18 18 18 18 17 16 15 15 14 14 14 13 12 13 13 12 12 12 13 11 5 3
22 19 18 19 21 22 18 17 17 18 17 16 15 15 14 15 15 15 16 16 17 19 18 17 16 16 16 15 15 15 16 14 11 11 12 13 13 12 12 12 11 11 8
20 17 17 18 20 21 19 20 18 17 16 19 17 15 15 15 15 15 16 15 15 17 17 16 15 15 16 16 16 16 16 17 15 12 12 13 13 13 12 11 10 9 9
17 17 17 18 20 20 21 21 19 18 17 17 16 15 16 16 16 16 15 15 15 16 16 15 15 14 14 15 15 15 16 16 16 14 13 13 12 12 11 11 10 9 9
17 17 17 20 22 22 20 21 22 22 20 18 15 17 16 16 16 16 17 16 16 16 15 14 14 13 13 13 14 14 14 15 15 15 14 13 12 12 11 11 10 10 9
19 20 19 20 22 21 21 22 22 22 23 23 19 17 15 15 15 16 18 18 17 16 16 14 14 13 13 13 13 13 14 14 15 15 15 14 13 12 10 9 9 9 10
22 19 20 23 25 22 22 22 21 19 20 23 22 19 17 17 17 17 18 19 18 17 16 15 13 13 12 12 12 12 13 13 14 14 13 13 13 12 11 10 10 9 9
23 22 21 23 25 22 22 22 21 20 20 18 18 18 19 19 23 20 18 19 19 18 16 15 14 13 12 12 12 12 11 12 12 13 13 13 12 11 11 10 10 9 10
26 26 25 24 24 21 21 23 23 21 20 19 18 16 16 21 22 23 20 19 18 19 18 17 15 13 13 12 11 11 11 11 11 11 12 12 12 11 10 10 9 9 9
27 27 26 25 22 22 22 22 24 25 24 23 22 21 19 21 23 23 23 22 20 20 19 18 16 15 13 12 12 11 11 11 10 10 10 10 10 10 10 9 9 8 8
26 25 25 24 24 24 23 24 27 25 24 26 25 26 25 25 23 24 24 22 22 20 20 19 17 15 14 13 12 11 11 10 10 9 9 9 9 9 8 8 8 8 8
24 22 21 22 25 25 23 23 23 23 25 29 30 30 29 27 27 24 23 22 20 19 19 19 18 16 14 13 12 12 11 10 10 9 9 8 8 8 8 7 7 7 7
22 20 21 22 21 22 23 23 24 24 25 25 25 25 25 25 26 25 21 21 21 20 17 17 17 16 15 14 13 12 12 11 10 9 9 8 8 8 7 7 7 6 6
Wind_Direction
312 304 306 312 318 318 318 319 322 323 321 317 313 305 294 287 282 290 296 274 273 280 290 294 295 296 294 295 295 293 291 291 291 294 294 296 295 293 289 284 272 272 278
289 302 316 321 320 317 318 324 326 323 322 318 314 308 298 293 293 295 285 264 285 291 288 291 297 299 299 298 298 296 293 291 290 293 296 296 292 291 287 282 271 265 273
301 314 315 314 315 317 319 322 325 325 324 320 317 314 299 298 301 302 294 289 295 291 295 301 302 302 302 301 299 296 294 289 288 289 293 295 295 289 293 283 275 267 269
307 310 314 314 309 311 320 324 326 327 326 323 322 320 308 308 309 304 311 310 302 303 304 304 304 303 303 303 298 297 296 292 291 290 290 294 293 294 286 289 281 269 268
310 318 310 296 301 315 319 323 328 331 330 327 329 328 336 321 316 320 316 312 310 309 308 308 307 308 306 302 298 297 295 294 293 291 291 293 294 293 289 285 281 283 270
318 312 295 293 309 314 320 327 331 330 328 321 322 315 309 310 314 315 316 315 314 315 315 315 316 320 316 311 312 316 317 303 297 292 289 286 290 285 289 282 277 276 280
313 303 295 303 310 318 326 327 327 323 319 309 316 291 295 307 311 314 317 318 319 321 321 321 321 321 320 316 317 319 313 307 298 295 290 285 281 285 287 286 279 270 268
309 296 301 309 317 322 326 326 320 313 312 310 306 281 295 306 311 316 318 320 323 326 326 325 320 320 319 322 318 315 312 311 307 308 307 286 280 278 276 275 278 286 265
306 303 310 317 320 321 323 324 319 306 304 307 302 284 297 303 311 315 319 323 328 329 329 326 323 319 321 320 319 316 316 318 312 306 302 303 288 281 278 277 271 270 269
304 311 316 318 314 313 319 322 318 308 298 297 292 291 293 304 310 314 321 326 328 330 333 329 327 327 327 324 322 321 325 322 321 318 315 313 315 307 302 277 264 254 258
308 314 317 316 308 305 313 318 314 303 297 291 282 287 299 304 307 313 321 329 327 328 331 334 333 334 331 328 328 326 316 318 325 325 323 317 314 310 305 301 295 259 249
310 313 316 318 311 305 310 312 309 296 292 284 285 294 298 300 305 313 321 328 327 330 332 335 336 337 337 335 330 323 322 323 331 332 333 331 328 324 314 303 288 274 268
311 312 313 318 317 309 309 307 307 294 280 280 292 296 296 298 304 311 319 324 328 333 334 336 338 338 336 337 337 334 335 334 340 344 344 344 349 348 349 340 316 278 267
311 309 307 315 320 311 301 299 302 293 283 286 294 295 290 296 302 308 315 321 331 335 336 339 342 346 345 344 348 353 355 349 347 352 357 356 357 3 7 12 19 18 337
308 309 308 311 317 311 298 295 298 301 286 285 296 287 287 293 300 302 310 317 326 332 336 338 341 346 353 357 1 2 5 7 359 355 2 4 4 4 9 14 25 35 39
306 310 313 312 315 314 302 299 295 301 296 287 293 287 289 290 295 295 301 308 318 329 334 335 341 346 350 355 358 2 4 6 7 4 360 1 4 3 4 7 8 25 31
302 308 311 313 310 310 306 295 292 293 300 309 291 285 289 286 289 287 296 303 311 322 328 331 335 341 345 349 352 358 1 3 4 2 357 354 355 0 2 1 3 1 4
304 302 303 309 308 294 302 294 289 286 283 297 306 278 289 283 284 281 290 295 302 312 318 324 328 331 337 340 343 348 354 359 1 1 359 357 355 351 352 359 2 360 353
319 317 310 307 309 296 290 295 289 283 276 283 286 287 287 285 275 275 282 285 291 300 307 313 319 323 325 330 333 338 343 348 353 356 357 356 357 359 355 349 348 346 348
318 314 308 303 308 300 281 293 292 286 280 278 279 275 273 273 281 278 281 275 283 293 297 303 308 315 317 321 324 329 333 338 345 351 353 354 355 356 358 357 354 355 355
318 317 316 306 304 298 282 283 289 288 287 282 281 276 271 268 274 275 279 277 279 285 290 294 299 306 308 313 318 323 327 331 337 343 348 351 352 355 357 357 357 358 359
310 312 315 316 308 296 289 280 282 283 284 286 290 288 276 265 267 269 272 276 283 278 279 284 290 295 300 304 309 314 318 321 327 333 339 344 348 351 354 357 359 1 6
300 296 297 306 310 301 287 283 282 281 280 280 282 283 282 272 269 270 269 272 277 281 274 277 281 284 289 295 300 305 309 312 318 323 327 332 336 342 349 355 358 3 5
300 297 287 294 298 302 293 288 280 282 283 281 280 280 279 278 277 270 269 269 268 277 270 269 274 275 277 285 292 298 301 304 308 314 320 324 329 335 336 345 354 359 360
307 304 298 296 297 298 298 294 292 289 287 284 281 282 281 280 276 276 268 264 261 269 272 263 265 265 268 275 283 289 294 295 296 302 308 313 318 324 325 330 338 347 353
308 298 296 298 298 296 297 297 298 298 297 295 292 289 287 279 274 271 265 258 259 261 267 266 262 261 264 269 275 281 285 285 285 289 294 300 306 312 314 317 322 333 341